Overview Statistics Trail Chart Weather Telemetry Raw packets
 

This is the latest recevied weather packets stored in our database for station/object WA6OOO. If no packets are shown the sender has not sent any weather packets the latest 10 day(s).

<< 97 98 99 100 101 102 103 >>
Time Temp. Humidity Pressure Rain* Wind** Luminosity Snow
1787945850 30° C 60% 1015.8 hPa 0 mm - 431 W/m² -
1787945546 30.56° C 58% 1015.8 hPa 0 mm - 318 W/m² -
1787945241 31.11° C 58% 1016.1 hPa 0 mm - 340 W/m² -
1787944940 31.67° C 57% 1015.9 hPa 0 mm - 447 W/m² -
1787944638 32.22° C 55% 1016 hPa 0 mm - 717 W/m² -
1787944334 32.22° C 55% 1015.9 hPa 0 mm - 738 W/m² -
1787944029 32.22° C 54% 1016.1 hPa 0 mm - 678 W/m² -
1787943724 32.22° C 54% 1016 hPa 0 mm - 733 W/m² -
1787943419 31.67° C 54% 1016 hPa 0 mm - 782 W/m² -
1787943114 31.67° C 54% 1016 hPa 0 mm - 447 W/m² -
1787942809 31.67° C 53% 1015.9 hPa 0 mm - 696 W/m² -
1787942503 31.67° C 55% 1015.8 hPa 0 mm - 682 W/m² -
1787942198 31.67° C 55% 1015.9 hPa 0 mm - 480 W/m² -
1787941895 31.11° C 56% 1016.1 hPa 0 mm - 716 W/m² -
1787941593 30.56° C 57% 1016 hPa 0 mm - 648 W/m² -
1787941288 30.56° C 57% 1016.1 hPa 0 mm - 650 W/m² -
1787940988 30° C 63% 1016 hPa 0 mm - 620 W/m² -
1787940686 30° C 63% 1016.3 hPa 0 mm - 620 W/m² -
1787940387 30° C 63% 1016.3 hPa 0 mm - 620 W/m² -
1787940084 30° C 63% 1016.1 hPa 0 mm - 620 W/m² -
1787939779 30° C 63% 1016.1 hPa 0 mm - 620 W/m² -
1787939478 30° C 63% 1016.1 hPa 0 mm - 620 W/m² -
1787939173 30° C 63% 1016 hPa 0 mm - 620 W/m² -
1787938868 29.44° C 63% 1016.1 hPa 0 mm - 508 W/m² -
1787938568 29.44° C 63% 1015.9 hPa 0 mm - 508 W/m² -

* Rain latest hour (hover to see other rain measurements)
** Current wind speed in m/s (hover to see current wind gust speed)